Simultaneous Nadir Overpasses (SNOs) Predictions

Prediction of SNOs between AQUA and METOP-A Satellite Orbit:

Table of predicted SNOs for the next 14.0 days since TLE Epoch: 12/22/2017
Index Date (AQUA) Time (AQUA) Lat,Lon (AQUA) SZA (AQUA ) Date (METOP-A) Time (METOP-A) Lat,Lon (METOP-A) SZA (METOP-A ) Distance(km) Time Diff (sec)
1 12/23/2017 00:16:16 73.99, 169.77 97.41 12/23/2017 00:15:04 73.95, 169.47 97.39 10.18 72
2 12/23/2017 01:05:44 -74.12, -22.88 82.46 12/23/2017 01:05:43 -74.10, -22.83 82.48 2.11 1
3 12/23/2017 01:55:13 74.19, 144.59 97.62 12/23/2017 01:56:21 74.17, 144.68 97.59 3.12 68
4 12/25/2017 19:50:33 74.05,-123.92 97.41 12/25/2017 19:49:20 74.06,-123.86 97.44 2.24 73
5 12/25/2017 20:40:00 -74.12, 43.55 82.51 12/25/2017 20:40:01 -74.11, 43.60 82.52 1.95 1
6 12/25/2017 21:29:29 74.19,-148.98 97.57 12/25/2017 21:30:39 74.18,-148.89 97.55 3.07 70
7 12/28/2017 15:24:50 74.06, -57.51 97.32 12/28/2017 15:23:39 74.06, -57.44 97.33 2.29 71
8 12/28/2017 16:14:17 -74.14, 109.95 82.61 12/28/2017 16:14:20 -74.12, 110.02 82.63 2.88 3
9 12/28/2017 17:03:45 74.16, -82.46 97.42 12/28/2017 17:04:58 74.19, -82.47 97.44 3.36 73
10 12/31/2017 10:59:07 74.08, 8.87 97.17 12/31/2017 10:57:58 74.07, 8.97 97.16 3.54 69
11 12/31/2017 11:48:33 -74.11, 176.46 82.81 12/31/2017 11:48:39 -74.12, 176.44 82.80 1.91 6
12 12/31/2017 12:38:03 74.23, -16.20 97.32 12/31/2017 12:39:16 74.24, -15.94 97.31 7.86 73
13 01/03/2018 06:33:22 74.06, 75.36 96.91 01/03/2018 06:32:16 74.07, 75.38 96.93 1.06 66
14 01/03/2018 07:22:49 -74.14,-117.18 83.02 01/03/2018 07:22:57 -74.13,-117.15 83.03 1.58 8




NCC Satellite Simultaneous Nadir Overpasses (SNOs) Prediction Service
